Time,TemperatureF,DewpointF,PressureIn,WindDirection,WindDirectionDegrees,WindSpeedMPH,WindSpeedGustMPH,Humidity,HourlyPrecipIn,Conditions,Clouds,dailyrainin,SoftwareType,DateUTC
2017-11-17 00:04:00,44.2,33.0,29.86,NNW,338,2.0,-999.0,66,0.00,,,0.00,,2017-11-17 05:04:00,
2017-11-17 00:09:00,44.0,34.0,29.85,NW,315,1.0,-999.0,68,0.00,,,0.00,,2017-11-17 05:09:00,
2017-11-17 00:15:00,44.0,34.0,29.86,North,0,1.0,-999.0,69,0.00,,,0.00,,2017-11-17 05:15:00,
2017-11-17 00:20:00,43.9,33.0,29.85,WNW,293,1.0,-999.0,66,0.00,,,0.00,,2017-11-17 05:20:00,
2017-11-17 00:26:00,43.6,34.0,29.85,West,270,0.0,-999.0,70,0.00,,,0.00,,2017-11-17 05:26:00,
2017-11-17 00:31:00,43.4,33.0,29.84,NNW,338,0.0,-999.0,68,0.00,,,0.00,,2017-11-17 05:31:00,
2017-11-17 00:36:00,43.2,33.0,29.85,WNW,293,2.0,-999.0,69,0.00,,,0.00,,2017-11-17 05:36:00,
2017-11-17 00:42:00,43.2,33.0,29.86,NW,315,2.0,-999.0,69,0.00,,,0.00,,2017-11-17 05:42:00,
2017-11-17 00:47:00,43.2,33.0,29.85,WNW,293,2.0,-999.0,66,0.00,,,0.00,,2017-11-17 05:47:00,
2017-11-17 00:53:00,43.2,33.0,29.87,West,270,1.0,-999.0,68,0.00,,,0.00,,2017-11-17 05:53:00,
2017-11-17 00:58:00,43.0,33.0,29.87,West,270,3.0,-999.0,68,0.00,,,0.00,,2017-11-17 05:58:00,
2017-11-17 01:04:00,42.7,32.0,29.88,WNW,293,2.0,-999.0,66,0.00,,,0.00,,2017-11-17 06:04:00,
2017-11-17 01:09:00,42.7,32.0,29.86,WNW,293,2.0,-999.0,68,0.00,,,0.00,,2017-11-17 06:09:00,
2017-11-17 01:15:00,42.7,32.0,29.87,NW,315,2.0,-999.0,66,0.00,,,0.00,,2017-11-17 06:15:00,
2017-11-17 01:20:00,42.7,32.0,29.86,NNW,338,2.0,-999.0,68,0.00,,,0.00,,2017-11-17 06:20:00,
2017-11-17 01:26:00,42.7,32.0,29.87,WNW,293,3.0,-999.0,65,0.00,,,0.00,,2017-11-17 06:26:00,
2017-11-17 01:31:00,42.5,32.0,29.86,WNW,293,3.0,-999.0,66,0.00,,,0.00,,2017-11-17 06:31:00,
2017-11-17 01:37:00,42.5,31.0,29.87,ENE,68,4.0,-999.0,65,0.00,,,0.00,,2017-11-17 06:37:00,
2017-11-17 01:42:00,42.5,31.0,29.87,WNW,293,4.0,-999.0,63,0.00,,,0.00,,2017-11-17 06:42:00,
2017-11-17 01:47:00,42.5,31.0,29.89,NNW,338,3.0,-999.0,65,0.00,,,0.00,,2017-11-17 06:47:00,
2017-11-17 01:53:00,42.5,31.0,29.89,WNW,293,3.0,-999.0,65,0.00,,,0.00,,2017-11-17 06:53:00,
2017-11-17 01:58:00,42.5,31.0,29.89,NW,315,3.0,-999.0,63,0.00,,,0.00,,2017-11-17 06:58:00,
2017-11-17 02:04:00,42.5,31.0,29.90,WNW,293,6.0,-999.0,65,0.00,,,0.00,,2017-11-17 07:04:00,
2017-11-17 02:09:00,42.5,31.0,29.90,West,270,1.0,-999.0,63,0.00,,,0.00,,2017-11-17 07:09:00,
2017-11-17 02:15:00,42.5,30.0,29.90,WNW,293,5.0,-999.0,63,0.00,,,0.00,,2017-11-17 07:15:00,
2017-11-17 02:20:00,42.5,31.0,29.90,West,270,3.0,-999.0,63,0.00,,,0.00,,2017-11-17 07:20:00,
2017-11-17 02:26:00,42.5,30.0,29.90,SSE,158,4.0,-999.0,61,0.00,,,0.00,,2017-11-17 07:26:00,
2017-11-17 02:31:00,42.5,31.0,29.90,NNE,23,2.0,-999.0,63,0.00,,,0.00,,2017-11-17 07:31:00,
2017-11-17 02:37:00,42.4,31.0,29.90,North,0,3.0,-999.0,63,0.00,,,0.00,,2017-11-17 07:37:00,
2017-11-17 02:42:00,42.4,31.0,29.90,NNW,338,1.0,-999.0,63,0.00,,,0.00,,2017-11-17 07:42:00,
2017-11-17 02:48:00,42.3,30.0,29.91,NW,315,3.0,-999.0,63,0.00,,,0.00,,2017-11-17 07:48:00,
2017-11-17 02:53:00,42.1,30.0,29.91,NW,315,2.0,-999.0,63,0.00,,,0.00,,2017-11-17 07:53:00,
2017-11-17 02:59:00,42.1,30.0,29.90,NW,315,3.0,-999.0,63,0.00,,,0.00,,2017-11-17 07:59:00,
2017-11-17 03:04:00,42.1,30.0,29.90,NW,315,2.0,-999.0,63,0.00,,,0.00,,2017-11-17 08:04:00,
2017-11-17 03:10:00,41.9,30.0,29.90,NW,315,2.0,-999.0,65,0.00,,,0.00,,2017-11-17 08:10:00,
2017-11-17 03:15:00,41.7,30.0,29.89,West,270,2.0,-999.0,65,0.00,,,0.00,,2017-11-17 08:15:00,
2017-11-17 03:20:00,41.5,30.0,29.91,North,0,2.0,-999.0,63,0.00,,,0.00,,2017-11-17 08:20:00,
2017-11-17 03:26:00,41.5,29.0,29.90,NW,315,3.0,-999.0,63,0.00,,,0.00,,2017-11-17 08:26:00,
2017-11-17 03:31:00,41.4,30.0,29.92,West,270,3.0,-999.0,63,0.00,,,0.00,,2017-11-17 08:31:00,
2017-11-17 03:37:00,41.4,30.0,29.91,NW,315,2.0,-999.0,63,0.00,,,0.00,,2017-11-17 08:37:00,
2017-11-17 03:42:00,41.4,30.0,29.93,WNW,293,2.0,-999.0,63,0.00,,,0.00,,2017-11-17 08:42:00,
2017-11-17 03:48:00,41.4,30.0,29.93,WNW,293,3.0,-999.0,65,0.00,,,0.00,,2017-11-17 08:48:00,
2017-11-17 03:53:00,41.5,30.0,29.93,WNW,293,2.0,-999.0,63,0.00,,,0.00,,2017-11-17 08:53:00,
2017-11-17 03:59:00,41.5,29.0,29.93,WNW,293,3.0,-999.0,63,0.00,,,0.00,,2017-11-17 08:59:00,
2017-11-17 04:04:00,41.5,30.0,29.92,NNE,23,3.0,-999.0,63,0.00,,,0.00,,2017-11-17 09:04:00,
2017-11-17 04:08:00,41.5,29.0,29.94,West,270,3.0,-999.0,63,0.00,,,0.00,,2017-11-17 09:08:00,
2017-11-17 04:13:00,41.5,29.0,29.92,NW,315,4.0,-999.0,61,0.00,,,0.00,,2017-11-17 09:13:00,
2017-11-17 04:19:00,41.5,30.0,29.93,NNW,338,2.0,-999.0,63,0.00,,,0.00,,2017-11-17 09:19:00,
2017-11-17 04:24:00,41.5,29.0,29.94,WNW,293,4.0,-999.0,63,0.00,,,0.00,,2017-11-17 09:24:00,
2017-11-17 04:30:00,41.5,30.0,29.93,WNW,293,2.0,-999.0,63,0.00,,,0.00,,2017-11-17 09:30:00,
2017-11-17 04:36:00,41.5,30.0,29.95,NNW,338,3.0,-999.0,63,0.00,,,0.00,,2017-11-17 09:36:00,
2017-11-17 04:41:00,41.4,30.0,29.95,NNE,23,3.0,-999.0,63,0.00,,,0.00,,2017-11-17 09:41:00,
2017-11-17 04:46:00,41.4,30.0,29.96,NW,315,1.0,-999.0,65,0.00,,,0.00,,2017-11-17 09:46:00,
2017-11-17 04:52:00,41.1,30.0,29.95,NW,315,3.0,-999.0,65,0.00,,,0.00,,2017-11-17 09:52:00,
2017-11-17 04:57:00,40.9,30.0,29.96,NW,315,2.0,-999.0,65,0.00,,,0.00,,2017-11-17 09:57:00,
2017-11-17 05:03:00,40.7,29.0,29.95,NW,315,1.0,-999.0,63,0.00,,,0.00,,2017-11-17 10:03:00,
2017-11-17 05:08:00,40.7,29.0,29.96,NE,45,2.0,-999.0,63,0.00,,,0.00,,2017-11-17 10:08:00,
2017-11-17 05:14:00,40.5,29.0,29.95,WNW,293,4.0,-999.0,63,0.00,,,0.00,,2017-11-17 10:14:00,
2017-11-17 05:25:00,40.2,29.0,29.96,NNW,338,2.0,-999.0,65,0.00,,,0.00,,2017-11-17 10:25:00,
2017-11-17 05:30:00,40.0,29.0,29.96,WNW,293,2.0,-999.0,65,0.00,,,0.00,,2017-11-17 10:30:00,
2017-11-17 05:36:00,39.9,30.0,29.97,WNW,293,2.0,-999.0,68,0.00,,,0.00,,2017-11-17 10:36:00,
2017-11-17 05:41:00,39.9,29.0,29.96,WNW,293,2.0,-999.0,65,0.00,,,0.00,,2017-11-17 10:41:00,
2017-11-17 05:46:00,39.7,29.0,29.98,West,270,2.0,-999.0,65,0.00,,,0.00,,2017-11-17 10:46:00,
2017-11-17 05:52:00,39.7,29.0,29.98,West,270,4.0,-999.0,65,0.00,,,0.00,,2017-11-17 10:52:00,
2017-11-17 05:57:00,39.7,28.0,29.98,NW,315,4.0,-999.0,63,0.00,,,0.00,,2017-11-17 10:57:00,
2017-11-17 06:03:00,39.7,28.0,29.97,WNW,293,4.0,-999.0,65,0.00,,,0.00,,2017-11-17 11:03:00,
2017-11-17 06:08:00,39.7,28.0,29.97,NW,315,3.0,-999.0,63,0.00,,,0.00,,2017-11-17 11:08:00,
2017-11-17 06:14:00,39.5,28.0,29.97,WNW,293,3.0,-999.0,63,0.00,,,0.00,,2017-11-17 11:14:00,
2017-11-17 06:19:00,39.4,28.0,29.97,NNW,338,4.0,-999.0,63,0.00,,,0.00,,2017-11-17 11:19:00,
2017-11-17 06:25:00,39.4,28.0,29.99,NNE,23,3.0,-999.0,65,0.00,,,0.00,,2017-11-17 11:25:00,
2017-11-17 06:30:00,39.2,29.0,29.98,NW,315,3.0,-999.0,68,0.00,,,0.00,,2017-11-17 11:30:00,
2017-11-17 06:36:00,39.0,29.0,30.00,NW,315,3.0,-999.0,69,0.00,,,0.00,,2017-11-17 11:36:00,
2017-11-17 06:41:00,38.7,28.0,30.00,NNW,338,3.0,-999.0,66,0.00,,,0.00,,2017-11-17 11:41:00,
2017-11-17 06:47:00,38.7,28.0,29.99,NNW,338,3.0,-999.0,65,0.00,,,0.00,,2017-11-17 11:47:00,
2017-11-17 06:52:00,38.7,29.0,29.98,NW,315,3.0,-999.0,68,0.00,,,0.00,,2017-11-17 11:52:00,
2017-11-17 06:57:00,38.7,28.0,30.00,NNW,338,2.0,-999.0,66,0.00,,,0.00,,2017-11-17 11:57:00,
2017-11-17 07:03:00,38.7,28.0,30.00,NNW,338,2.0,-999.0,66,0.00,,,0.00,,2017-11-17 12:03:00,
2017-11-17 07:08:00,38.7,27.0,30.00,WNW,293,4.0,-999.0,65,0.00,,,0.00,,2017-11-17 12:08:00,
2017-11-17 07:14:00,38.7,28.0,30.01,East,90,2.0,-999.0,65,0.00,,,0.00,,2017-11-17 12:14:00,
2017-11-17 07:19:00,38.4,28.0,29.99,WNW,293,3.0,-999.0,66,0.00,,,0.00,,2017-11-17 12:19:00,
2017-11-17 07:25:00,38.4,28.0,30.02,NW,315,2.0,-999.0,65,0.00,,,0.00,,2017-11-17 12:25:00,
2017-11-17 07:30:00,38.2,27.0,30.02,West,270,3.0,-999.0,65,0.00,,,0.00,,2017-11-17 12:30:00,
2017-11-17 07:36:00,38.4,28.0,30.03,WNW,293,2.0,-999.0,66,0.00,,,0.00,,2017-11-17 12:36:00,
2017-11-17 07:41:00,38.4,28.0,30.03,East,90,3.0,-999.0,68,0.00,,,0.00,,2017-11-17 12:41:00,
2017-11-17 07:47:00,38.7,28.0,30.02,NNW,338,1.0,-999.0,66,0.00,,,0.00,,2017-11-17 12:47:00,
2017-11-17 07:52:00,38.7,28.0,30.04,NW,315,2.0,-999.0,66,0.00,,,0.00,,2017-11-17 12:52:00,
2017-11-17 07:58:00,38.7,28.0,30.02,WNW,293,2.0,-999.0,65,0.00,,,0.00,,2017-11-17 12:58:00,
2017-11-17 08:03:00,39.0,28.0,30.04,WNW,293,3.0,-999.0,65,0.00,,,0.00,,2017-11-17 13:03:00,
2017-11-17 08:09:00,39.2,28.0,30.02,West,270,1.0,-999.0,65,0.00,,,0.00,,2017-11-17 13:09:00,
2017-11-17 08:14:00,39.2,28.0,30.03,NNW,338,4.0,-999.0,65,0.00,,,0.00,,2017-11-17 13:14:00,
2017-11-17 08:19:00,39.4,28.0,30.02,North,0,1.0,-999.0,65,0.00,,,0.00,,2017-11-17 13:19:00,
2017-11-17 08:25:00,39.4,28.0,30.04,ENE,68,1.0,-999.0,65,0.00,,,0.00,,2017-11-17 13:25:00,
2017-11-17 08:30:00,39.5,28.0,30.04,NNE,23,0.0,-999.0,65,0.00,,,0.00,,2017-11-17 13:30:00,
2017-11-17 08:36:00,39.7,28.0,30.04,WNW,293,2.0,-999.0,65,0.00,,,0.00,,2017-11-17 13:36:00,
2017-11-17 08:41:00,39.9,28.0,30.04,SW,225,1.0,-999.0,63,0.00,,,0.00,,2017-11-17 13:41:00,
2017-11-17 08:47:00,40.0,28.0,30.02,West,270,4.0,-999.0,63,0.00,,,0.00,,2017-11-17 13:47:00,
2017-11-17 08:52:00,40.5,28.0,30.02,NW,315,3.0,-999.0,61,0.00,,,0.00,,2017-11-17 13:52:00,
2017-11-17 08:58:00,40.5,29.0,30.02,NNW,338,2.0,-999.0,63,0.00,,,0.00,,2017-11-17 13:58:00,
2017-11-17 09:03:00,40.7,29.0,30.03,North,0,0.0,-999.0,63,0.00,,,0.00,,2017-11-17 14:03:00,
2017-11-17 09:09:00,40.9,29.0,30.03,SW,225,0.0,-999.0,63,0.00,,,0.00,,2017-11-17 14:09:00,
2017-11-17 09:14:00,41.4,28.0,30.03,NNE,23,0.0,-999.0,61,0.00,,,0.00,,2017-11-17 14:14:00,
2017-11-17 09:20:00,41.5,29.0,30.04,NE,45,1.0,-999.0,61,0.00,,,0.00,,2017-11-17 14:20:00,
2017-11-17 09:25:00,41.5,27.0,30.04,East,90,2.0,-999.0,58,0.00,,,0.00,,2017-11-17 14:25:00,
2017-11-17 09:30:00,41.9,28.0,30.05,ESE,113,0.0,-999.0,58,0.00,,,0.00,,2017-11-17 14:30:00,
2017-11-17 09:36:00,42.3,28.0,30.04,West,270,0.0,-999.0,59,0.00,,,0.00,,2017-11-17 14:36:00,
2017-11-17 09:41:00,42.4,28.0,30.06,NNW,338,0.0,-999.0,56,0.00,,,0.00,,2017-11-17 14:41:00,
2017-11-17 09:47:00,43.2,29.0,30.03,North,0,0.0,-999.0,56,0.00,,,0.00,,2017-11-17 14:47:00,
2017-11-17 09:52:00,43.6,29.0,30.03,ESE,113,1.0,-999.0,55,0.00,,,0.00,,2017-11-17 14:52:00,
2017-11-17 09:58:00,44.0,29.0,30.03,WSW,248,0.0,-999.0,55,0.00,,,0.00,,2017-11-17 14:58:00,
2017-11-17 10:03:00,44.4,28.0,30.04,WSW,248,0.0,-999.0,54,0.00,,,0.00,,2017-11-17 15:03:00,
2017-11-17 10:09:00,44.8,29.0,30.05,NNE,23,0.0,-999.0,54,0.00,,,0.00,,2017-11-17 15:09:00,
2017-11-17 10:14:00,45.0,28.0,30.05,SW,225,0.0,-999.0,53,0.00,,,0.00,,2017-11-17 15:14:00,
2017-11-17 10:20:00,45.0,28.0,30.05,South,180,1.0,-999.0,51,0.00,,,0.00,,2017-11-17 15:20:00,
2017-11-17 10:25:00,43.2,26.0,30.04,SSE,158,1.0,-999.0,51,0.00,,,0.00,,2017-11-17 15:25:00,
2017-11-17 10:31:00,44.0,28.0,30.05,NNW,338,0.0,-999.0,53,0.00,,,0.00,,2017-11-17 15:31:00,
2017-11-17 10:36:00,45.2,28.0,30.03,NE,45,1.0,-999.0,51,0.00,,,0.00,,2017-11-17 15:36:00,
2017-11-17 10:42:00,44.6,27.0,30.05,WNW,293,0.0,-999.0,50,0.00,,,0.00,,2017-11-17 15:42:00,
2017-11-17 10:47:00,45.9,27.0,30.02,WSW,248,1.0,-999.0,48,0.00,,,0.00,,2017-11-17 15:47:00,
2017-11-17 10:52:00,45.9,26.0,30.03,SSW,203,1.0,-999.0,45,0.00,,,0.00,,2017-11-17 15:52:00,
2017-11-17 10:58:00,45.9,26.0,30.03,SW,225,1.0,-999.0,46,0.00,,,0.00,,2017-11-17 15:58:00,
2017-11-17 11:03:00,46.5,26.0,30.02,SSW,203,1.0,-999.0,45,0.00,,,0.00,,2017-11-17 16:03:00,
2017-11-17 11:09:00,46.9,26.0,30.04,West,270,0.0,-999.0,45,0.00,,,0.00,,2017-11-17 16:09:00,
2017-11-17 11:14:00,48.0,27.0,30.02,NW,315,2.0,-999.0,44,0.00,,,0.00,,2017-11-17 16:14:00,
2017-11-17 11:25:00,47.6,27.0,30.02,SW,225,0.0,-999.0,45,0.00,,,0.00,,2017-11-17 16:25:00,
2017-11-17 11:31:00,48.9,27.0,30.01,SW,225,1.0,-999.0,43,0.00,,,0.00,,2017-11-17 16:31:00,
2017-11-17 11:36:00,48.5,27.0,30.00,ENE,68,0.0,-999.0,43,0.00,,,0.00,,2017-11-17 16:36:00,
2017-11-17 11:42:00,48.9,26.0,30.01,East,90,1.0,-999.0,40,0.00,,,0.00,,2017-11-17 16:42:00,
2017-11-17 11:47:00,49.0,27.0,30.03,SSE,158,1.0,-999.0,43,0.00,,,0.00,,2017-11-17 16:47:00,
2017-11-17 11:53:00,49.0,26.0,30.01,NNE,23,1.0,-999.0,40,0.00,,,0.00,,2017-11-17 16:53:00,
2017-11-17 11:58:00,47.6,24.0,30.02,ENE,68,3.0,-999.0,40,0.00,,,0.00,,2017-11-17 16:58:00,
2017-11-17 12:04:00,48.0,24.0,30.02,SW,225,3.0,-999.0,40,0.00,,,0.00,,2017-11-17 17:04:00,
2017-11-17 12:09:00,48.5,26.0,30.02,NE,45,2.0,-999.0,41,0.00,,,0.00,,2017-11-17 17:09:00,
2017-11-17 12:15:00,47.3,22.0,30.02,SE,135,2.0,-999.0,37,0.00,,,0.00,,2017-11-17 17:15:00,
2017-11-17 12:20:00,48.4,23.0,30.02,ENE,68,2.0,-999.0,37,0.00,,,0.00,,2017-11-17 17:20:00,
2017-11-17 12:26:00,48.9,24.0,30.03,West,270,1.0,-999.0,37,0.00,,,0.00,,2017-11-17 17:26:00,
2017-11-17 12:31:00,50.3,25.0,30.01,North,0,1.0,-999.0,37,0.00,,,0.00,,2017-11-17 17:31:00,
2017-11-17 12:37:00,48.6,24.0,30.02,NNE,23,2.0,-999.0,39,0.00,,,0.00,,2017-11-17 17:37:00,
2017-11-17 12:42:00,48.6,23.0,30.01,NE,45,1.0,-999.0,37,0.00,,,0.00,,2017-11-17 17:42:00,
2017-11-17 12:47:00,48.5,24.0,30.03,NE,45,2.0,-999.0,39,0.00,,,0.00,,2017-11-17 17:47:00,
2017-11-17 12:53:00,48.4,24.0,30.03,East,90,2.0,-999.0,39,0.00,,,0.00,,2017-11-17 17:53:00,
2017-11-17 12:58:00,47.6,24.0,30.04,West,270,2.0,-999.0,40,0.00,,,0.00,,2017-11-17 17:58:00,
2017-11-17 13:04:00,49.2,24.0,30.03,NNE,23,2.0,-999.0,37,0.00,,,0.00,,2017-11-17 18:04:00,
2017-11-17 13:09:00,49.8,25.0,30.02,SSW,203,2.0,-999.0,37,0.00,,,0.00,,2017-11-17 18:09:00,
2017-11-17 13:15:00,49.2,24.0,30.03,ENE,68,1.0,-999.0,37,0.00,,,0.00,,2017-11-17 18:15:00,
2017-11-17 13:20:00,47.3,24.0,30.02,East,90,2.0,-999.0,40,0.00,,,0.00,,2017-11-17 18:20:00,
2017-11-17 13:26:00,46.7,23.0,30.03,East,90,1.0,-999.0,39,0.00,,,0.00,,2017-11-17 18:26:00,
2017-11-17 13:31:00,46.7,23.0,30.02,SSW,203,2.0,-999.0,39,0.00,,,0.00,,2017-11-17 18:31:00,
2017-11-17 13:37:00,47.3,22.0,30.02,ESE,113,1.0,-999.0,37,0.00,,,0.00,,2017-11-17 18:37:00,
2017-11-17 13:42:00,47.5,22.0,30.03,NE,45,2.0,-999.0,37,0.00,,,0.00,,2017-11-17 18:42:00,